Location: *
(48.7358°N, 0.3111°E)
Time: 00:32:34
(UTC+00:00)

GP-B - Pass Details

Date: 22 October 2019
Orbit: 632 x 635 km, 89.8° (Epoch: 16 November)

Event Time Altitude Azimuth Distance (km) Brightness Sun altitude
Rises 05:02:45 0° 185° (S) 2,920 6.5 -14.9°
Reaches altitude 10° 05:04:59 10° 188° (S) 2,016 5.6 -14.5°
Maximum altitude 05:09:23 65° 271° (W) 703 3.0 -13.8°
Drops below altitude 10° 05:13:50 10° 353° (N) 2,032 5.6 -13.1°
Sets 05:16:05 0° 357° (N) 2,945 6.5 -12.7°
